Wind_Speed
31 31 29 28 28 28 28 28 28 28 28 29 28 28 27 27 28 28 28 28 28 28 29 30 30 32 34 33 32 33 33 32 32 34 34 34 34 35 32 32 30 30 30
33 33 33 32 32 30 30 30 31 30 29 29 30 31 30 30 30 30 31 31 32 33 34 35 36 37 38 38 38 39 39 39 36 37 38 40 39 37 36 36 34 32 31
39 37 34 33 32 31 32 32 32 31 32 33 33 34 33 33 33 33 33 35 37 38 39 38 39 41 43 43 41 40 40 39 37 36 38 41 43 42 41 38 37 36 35
28 28 29 31 32 33 32 31 31 32 33 34 36 36 36 36 35 36 36 35 36 37 39 39 40 40 41 41 39 38 37 37 37 35 36 39 41 43 45 42 42 39 38
39 34 31 31 31 32 33 33 33 34 34 35 36 36 36 35 34 35 34 35 36 36 36 37 37 36 37 36 36 36 37 38 39 38 36 35 37 39 41 45 44 42 41
43 41 38 36 35 36 36 36 36 35 35 35 34 34 34 34 34 34 34 35 35 34 32 31 30 29 29 30 32 32 32 32 32 34 35 36 37 39 41 42 43 44 41
44 41 36 35 35 36 35 35 34 34 33 32 31 31 31 31 31 32 32 32 32 32 31 31 30 30 29 29 30 31 31 31 31 31 33 34 35 36 38 40 42 44 46
38 39 37 35 35 36 35 33 31 28 27 27 28 28 28 29 30 31 31 32 33 33 34 33 33 33 32 33 33 34 35 35 35 35 36 38 38 39 39 40 42 46 47
25 28 30 31 31 30 28 27 26 26 26 25 26 28 29 30 30 31 32 33 34 35 36 36 36 35 34 35 35 35 35 36 35 35 36 37 38 39 40 40 40 40 43
22 24 25 26 25 25 25 25 25 26 26 26 27 27 28 29 30 31 33 34 35 35 35 35 35 34 33 32 32 32 31 31 31 31 32 34 34 36 36 34 34 34 34
17 18 21 22 22 22 22 23 24 25 25 26 27 28 29 30 31 32 33 32 31 29 28 27 26 26 25 24 24 26 26 27 29 31 31 31 33 34 30 27 29 31 30
16 17 18 18 19 20 22 23 25 26 27 28 29 30 30 30 30 30 29 27 25 24 24 23 22 21 21 22 22 23 23 25 27 29 30 31 30 25 23 24 27 29 27
17 16 17 17 19 20 22 24 26 28 29 29 29 29 28 27 26 25 24 23 23 22 22 22 22 21 21 20 20 21 20 21 23 24 26 22 20 21 21 22 26 27 25
16 16 15 15 18 21 23 26 27 28 28 28 28 27 24 23 22 21 21 22 21 21 20 20 20 21 19 18 18 17 17 20 20 19 18 18 16 15 17 18 19 17 17
17 14 13 16 18 21 25 26 25 25 26 26 25 22 21 20 19 18 18 19 19 19 20 19 18 17 16 16 15 14 15 14 11 9 8 7 8 8 8 11 12 13 15
14 15 17 18 19 21 23 24 24 24 23 21 20 19 18 17 17 17 18 18 18 17 16 15 15 14 13 11 10 8 2 1 5 6 7 7 9 12 13 15 16 18 20
15 16 17 19 19 19 20 20 19 18 19 19 19 18 17 16 16 17 16 13 13 13 12 12 11 10 8 6 5 4 3 3 6 8 9 11 12 13 15 16 18 20 21
16 17 18 20 19 19 19 19 18 18 18 20 20 19 18 18 17 15 13 12 11 11 11 9 8 8 8 7 5 4 4 5 8 9 11 12 13 15 17 19 21 22 23
18 18 19 18 18 19 19 19 20 20 19 19 22 20 19 19 17 15 13 13 11 9 8 9 11 10 8 6 5 5 7 9 11 13 14 16 17 18 19 21 23 24 24
19 18 17 17 18 18 18 18 17 17 18 20 21 20 20 17 15 15 12 11 11 9 11 12 11 9 8 7 7 8 10 12 14 16 17 19 20 21 21 22 23 24 24
18 17 17 17 16 15 14 13 13 13 13 12 14 17 17 15 13 13 13 12 12 12 12 12 10 9 8 8 9 11 13 15 17 18 19 20 21 22 22 22 23 24 25
13 13 15 15 14 12 11 11 11 11 11 11 11 12 13 13 14 13 13 14 13 13 12 11 10 9 10 11 12 13 15 17 18 19 19 20 21 22 22 23 23 24 25
15 13 16 11 11 10 9 8 8 8 9 11 12 12 14 15 14 15 16 15 14 13 12 11 11 11 13 13 14 15 17 17 18 19 20 21 22 22 23 23 24 24 25
16 15 15 12 9 9 8 7 6 5 5 7 10 12 14 14 15 16 16 15 15 14 13 12 13 14 14 15 15 16 16 17 19 20 21 22 22 23 24 24 25 25 25
18 15 15 13 10 10 9 9 8 7 7 8 10 12 14 15 16 17 16 16 15 15 15 14 15 15 16 16 17 17 18 19 20 21 22 23 24 24 25 25 26 26 26
21 17 18 17 15 15 13 10 11 11 12 13 13 14 15 16 17 18 17 17 17 17 17 17 17 17 18 18 19 19 20 20 21 22 23 23 24 25 25 26 27 28 28
Wind_Direction
247 245 246 247 249 249 248 246 246 250 255 261 265 266 267 265 265 267 268 267 271 276 278 281 280 281 281 282 283 284 286 285 288 287 288 287 284 284 285 287 288 288 286
242 247 248 249 250 251 252 253 253 255 259 261 261 261 263 264 266 268 272 273 275 275 275 276 276 277 281 282 282 284 284 284 285 286 287 286 284 286 288 286 286 284 282
243 245 245 248 250 250 250 253 259 262 262 261 264 266 266 265 267 268 268 270 272 274 275 275 275 276 278 280 281 282 282 282 278 277 278 283 287 291 291 290 289 287 282
232 236 243 245 246 250 255 258 259 260 262 265 266 267 267 268 267 268 269 268 267 269 271 273 275 278 279 280 281 280 282 282 283 281 278 276 279 285 291 290 290 287 283
239 242 244 247 250 254 258 259 260 261 262 263 265 267 266 265 264 265 267 268 269 269 270 272 274 274 273 275 277 279 279 280 281 281 280 279 281 282 284 289 290 289 286
237 239 243 244 252 257 261 262 263 264 264 264 263 263 263 264 266 267 267 268 270 271 272 272 273 272 272 270 271 274 274 274 275 276 277 280 282 284 286 287 289 290 291
241 241 245 250 253 256 260 261 262 262 262 262 262 260 259 259 259 260 260 262 265 267 269 270 272 274 273 273 275 277 281 283 284 284 281 280 281 281 283 284 288 290 290
239 242 247 253 259 263 263 262 261 258 256 255 256 257 257 259 260 263 266 268 270 272 273 275 275 274 277 278 280 281 282 283 283 283 284 285 287 287 288 287 287 288 291
236 242 249 257 261 257 252 251 252 253 254 254 256 258 260 262 265 267 268 270 270 271 272 272 273 274 274 276 276 277 278 279 281 282 284 286 288 289 289 287 288 292 295
233 239 248 252 248 243 243 246 249 251 254 256 258 262 265 268 269 271 271 272 272 273 273 273 273 273 273 273 274 276 277 278 280 282 283 286 289 290 289 289 290 292 293
235 240 245 244 240 240 243 247 251 254 257 260 263 266 270 273 275 275 274 274 275 275 274 273 272 270 271 272 275 277 278 280 282 284 290 291 292 292 289 290 290 292 293
232 236 236 238 242 248 254 259 262 263 263 264 266 268 270 272 273 273 273 273 273 273 273 272 270 269 271 275 278 282 282 284 290 295 295 292 293 288 289 289 287 285 285
240 244 245 247 252 257 262 265 267 269 270 268 268 268 269 271 270 270 270 269 269 270 270 270 270 272 275 276 281 283 287 293 300 303 299 294 291 289 290 288 284 285 285
250 241 236 245 255 263 268 273 275 276 274 271 268 268 268 269 269 268 269 269 269 270 270 269 270 275 273 275 279 285 287 297 303 303 302 297 294 296 290 280 296 286 291
233 232 250 264 271 275 276 276 276 275 274 269 266 264 264 265 266 268 270 271 269 269 272 272 270 267 269 271 281 286 296 301 306 322 334 324 315 318 321 322 320 321 317
230 253 265 272 279 279 277 274 275 274 267 262 256 253 254 256 261 267 273 273 268 267 263 265 263 263 260 274 279 285 264 71 342 346 349 337 326 324 322 321 319 315 312
246 259 274 278 281 277 277 279 277 271 262 252 247 249 253 255 265 269 270 264 258 257 253 255 256 252 247 238 186 198 256 320 332 334 334 329 325 323 322 323 322 318 318
252 275 276 281 280 277 278 281 280 271 263 251 248 250 254 256 263 262 257 258 253 247 246 235 217 201 189 197 217 246 283 305 313 318 317 315 317 318 320 321 319 318 316
263 273 276 278 280 277 277 279 276 267 260 253 248 249 253 253 255 254 255 251 236 217 206 188 185 192 207 224 245 273 291 301 306 306 310 311 313 314 317 316 314 314 313
265 270 270 275 283 279 280 280 273 268 264 255 246 244 245 248 248 247 231 206 201 194 188 196 201 210 225 243 265 282 295 300 302 304 307 308 312 314 314 313 313 313 313
254 261 271 278 287 284 282 278 272 264 258 253 242 238 235 234 229 207 199 202 195 200 209 215 223 232 247 263 276 288 293 297 301 304 309 312 313 314 314 314 314 314 314
260 269 270 276 286 283 282 283 275 264 249 241 231 223 218 207 197 203 208 207 209 213 221 230 241 253 264 273 282 288 292 297 302 306 311 314 315 315 316 316 315 315 315
258 256 287 268 280 278 276 280 280 265 247 235 225 216 203 199 207 212 214 218 221 225 232 242 254 264 270 277 284 289 294 300 305 309 313 315 316 316 316 316 316 316 315
248 265 264 272 286 290 272 272 277 271 245 218 204 199 205 214 218 221 223 226 230 237 242 249 257 265 273 280 285 289 295 302 305 310 315 318 318 317 317 317 316 316 316
236 248 260 268 281 302 291 265 256 252 246 231 224 225 228 229 230 231 232 234 238 244 251 257 264 270 276 282 286 291 297 301 305 311 316 320 320 318 315 315 315 315 315
238 243 253 264 273 281 285 281 261 250 246 241 237 238 238 241 240 240 241 243 246 249 255 259 265 270 275 280 285 290 294 298 303 308 312 316 318 318 316 316 316 316 316
Height
3139 3140 3143 3145 3147 3150 3152 3153 3154 3155 3157 3157 3159 3160 3161 3163 3164 3165 3165 3166 3165 3165 3164 3164 3163 3162 3161 3161 3160 3159 3158 3157 3156 3153 3153 3151 3150 3149 3150 3151 3150 3150 3149
3133 3135 3137 3139 3142 3144 3145 3147 3148 3150 3151 3153 3154 3154 3155 3156 3157 3158 3158 3158 3159 3158 3158 3157 3156 3155 3154 3153 3153 3152 3150 3149 3150 3147 3144 3141 3142 3143 3143 3142 3142 3142 3141
3127 3130 3132 3134 3137 3139 3140 3141 3142 3144 3145 3146 3146 3147 3148 3150 3151 3152 3152 3152 3151 3150 3149 3149 3149 3148 3146 3145 3145 3144 3143 3141 3141 3141 3139 3134 3132 3132 3132 3132 3132 3133 3133
3120 3124 3126 3129 3131 3133 3134 3136 3136 3137 3138 3138 3139 3140 3141 3141 3143 3143 3144 3144 3143 3142 3141 3141 3140 3139 3138 3137 3137 3136 3135 3133 3133 3133 3132 3130 3128 3125 3121 3123 3122 3122 3123
3114 3118 3121 3122 3124 3127 3129 3130 3131 3131 3131 3132 3132 3132 3132 3133 3134 3135 3135 3135 3134 3135 3134 3133 3132 3132 3131 3129 3128 3127 3127 3127 3125 3125 3124 3123 3121 3120 3117 3111 3112 3112 3111
3107 3110 3113 3116 3118 3120 3122 3123 3123 3124 3124 3124 3125 3125 3126 3126 3126 3126 3126 3126 3126 3126 3126 3126 3125 3124 3124 3123 3122 3121 3120 3119 3118 3116 3115 3114 3113 3110 3109 3106 3103 3100 3102
3099 3103 3106 3110 3112 3113 3114 3115 3116 3116 3117 3117 3117 3118 3119 3120 3120 3120 3120 3120 3120 3120 3120 3119 3118 3118 3117 3116 3115 3113 3112 3111 3110 3108 3107 3106 3104 3102 3100 3097 3094 3091 3089
3092 3096 3100 3103 3104 3105 3106 3107 3107 3109 3110 3111 3112 3112 3113 3113 3113 3112 3112 3112 3112 3112 3111 3111 3110 3110 3109 3107 3106 3105 3104 3103 3102 3100 3098 3097 3095 3093 3091 3089 3086 3082 3078
3085 3091 3094 3096 3096 3097 3099 3100 3102 3103 3103 3104 3105 3106 3106 3106 3106 3106 3105 3105 3104 3104 3103 3103 3103 3102 3101 3100 3099 3097 3096 3095 3094 3092 3090 3089 3086 3084 3082 3080 3077 3074 3070
3080 3085 3088 3089 3090 3091 3093 3095 3096 3097 3097 3098 3098 3098 3099 3099 3098 3098 3097 3096 3096 3095 3094 3094 3093 3093 3092 3092 3091 3090 3089 3088 3086 3085 3083 3081 3079 3076 3074 3071 3069 3067 3065
3077 3080 3082 3083 3085 3087 3088 3089 3090 3091 3091 3091 3091 3092 3091 3091 3090 3089 3088 3087 3087 3086 3085 3085 3085 3085 3084 3084 3083 3083 3082 3081 3080 3078 3075 3072 3070 3067 3065 3063 3061 3060 3058
3074 3076 3077 3079 3081 3082 3083 3084 3084 3085 3084 3084 3084 3084 3084 3084 3083 3082 3081 3080 3079 3079 3079 3078 3078 3078 3078 3078 3077 3076 3075 3074 3072 3070 3067 3064 3062 3060 3058 3056 3055 3054 3051
3071 3071 3073 3075 3077 3077 3077 3078 3077 3077 3077 3077 3077 3076 3076 3076 3075 3075 3075 3074 3073 3073 3073 3072 3072 3073 3072 3072 3071 3070 3069 3067 3065 3063 3060 3057 3056 3055 3053 3051 3050 3048 3046
3068 3069 3069 3071 3072 3072 3072 3071 3070 3069 3069 3068 3069 3069 3069 3069 3069 3069 3068 3068 3068 3068 3067 3067 3066 3066 3067 3067 3067 3065 3064 3062 3060 3058 3056 3053 3051 3050 3049 3048 3045 3043 3041
3064 3065 3066 3066 3066 3066 3065 3064 3063 3062 3062 3062 3062 3063 3063 3063 3063 3063 3063 3063 3062 3062 3061 3061 3061 3062 3062 3063 3062 3061 3059 3058 3057 3055 3052 3050 3049 3048 3047 3045 3043 3040 3038
3061 3062 3062 3062 3061 3060 3060 3058 3057 3056 3056 3057 3058 3058 3059 3059 3059 3059 3058 3057 3057 3057 3057 3058 3058 3058 3059 3058 3058 3057 3057 3056 3055 3053 3051 3049 3048 3046 3044 3041 3039 3037 3034
3056 3057 3057 3057 3056 3055 3054 3054 3052 3051 3051 3052 3053 3053 3054 3054 3055 3055 3054 3053 3053 3053 3053 3054 3054 3055 3055 3055 3055 3055 3055 3054 3052 3051 3049 3048 3046 3044 3041 3038 3035 3033 3030
3052 3053 3052 3052 3051 3050 3049 3048 3047 3046 3046 3047 3048 3048 3049 3050 3051 3051 3050 3050 3050 3050 3050 3051 3051 3053 3053 3054 3054 3054 3053 3051 3050 3048 3047 3046 3043 3040 3037 3034 3032 3029 3026
3047 3048 3048 3047 3046 3045 3044 3042 3042 3041 3041 3041 3042 3043 3044 3045 3046 3046 3046 3047 3047 3047 3048 3049 3051 3052 3052 3052 3051 3051 3050 3048 3047 3046 3044 3042 3040 3036 3032 3030 3027 3024 3021
3042 3043 3043 3042 3041 3039 3038 3037 3036 3035 3035 3034 3035 3037 3040 3041 3042 3043 3044 3044 3046 3046 3048 3050 3050 3050 3050 3049 3049 3048 3047 3046 3045 3043 3041 3038 3035 3032 3028 3025 3022 3019 3016
3038 3038 3038 3037 3036 3035 3034 3033 3032 3030 3031 3030 3030 3032 3035 3037 3038 3040 3041 3043 3044 3046 3048 3048 3048 3048 3047 3046 3046 3045 3044 3043 3041 3039 3036 3034 3031 3028 3025 3021 3018 3014 3011
3035 3034 3034 3034 3033 3031 3030 3029 3028 3027 3027 3027 3027 3029 3031 3033 3035 3037 3039 3041 3042 3043 3045 3045 3045 3045 3044 3044 3042 3042 3041 3039 3037 3035 3032 3029 3026 3023 3020 3017 3013 3010 3006
3032 3031 3031 3030 3030 3029 3028 3027 3026 3024 3024 3024 3025 3026 3028 3031 3033 3035 3038 3039 3040 3040 3041 3041 3041 3041 3041 3040 3039 3038 3037 3034 3033 3030 3028 3024 3021 3018 3015 3011 3008 3005 3001
3028 3029 3028 3028 3027 3026 3025 3024 3023 3023 3023 3023 3024 3026 3028 3030 3032 3034 3035 3036 3036 3037 3037 3037 3037 3037 3037 3036 3034 3033 3031 3030 3028 3026 3023 3020 3017 3013 3010 3006 3003 2999 2996
3023 3024 3025 3024 3024 3024 3023 3022 3022 3022 3022 3023 3024 3026 3027 3029 3030 3031 3031 3032 3032 3033 3033 3033 3033 3033 3032 3031 3030 3028 3026 3025 3023 3021 3018 3015 3012 3008 3005 3001 2998 2994 2990
3018 3019 3020 3020 3020 3021 3020 3020 3020 3020 3021 3022 3023 3024 3025 3026 3027 3027 3028 3028 3028 3028 3029 3029 3029 3028 3027 3026 3025 3023 3022 3020 3019 3017 3014 3010 3007 3003 3000 2996 2992 2988 2984